Regional Weather Roundup
Issued by NWS

Home | Current Version | Previous Version | Text Only | Print | Product List | Glossary On
Versions: 1 2 3 4 5 6 7 8 9 10 11 12 13 14 15 16 17 18 19 20 21 22 23 24 25 26 27
000
ASUS44 KJAN 200110
RWRMS

MISSISSIPPI HOURLY WEATHER ROUNDUP
NATIONAL WEATHER SERVICE JACKSON MS
700 PM CST FRI JAN 19 2018

NOTE: "FAIR: INDICATES FEW OR NO CLOUDS BELOW 12,000 FEET WITH NO
SIGNIFICANT WEATHER AND/OR OBSTRUCTIONS TO VISIBILITY.

MSZ001>002-007>008-010>013-018>021-025>028-034>036-200200-
NORTHWEST MISSISSIPPI

CITY           SKY/WX    TMP DP  RH WIND       PRES   REMARKS
BATESVILLE     CLOUDY    41  17  37 CALM      30.21F
CLARKSDALE     CLOUDY    37  28  70 S7        30.20F WCI  32
CLEVELAND      CLOUDY    38  29  70 S3        30.21S
GREENWOOD      CLOUDY    43  24  47 S5        30.22S
GREENVILLE     CLOUDY    40  28  62 SE10      30.20F WCI  33
OLIVE BRANCH   CLOUDY    37  23  56 S12       30.16S WCI  30
OXFORD         CLOUDY    41  18  38 VRB5      30.22S
TUNICA           N/A     36  27  69 S7        30.20S WCI  30
WINONA         CLOUDY    40  28  63 CALM      30.23S
$$

MSZ003>006-009-014>017-022>024-029>033-037>039-200200-
NORTHEAST MISSISSIPPI

CITY           SKY/WX    TMP DP  RH WIND       PRES   REMARKS
ABERDEEN         N/A     45  28  53 SE3       30.25S
COLUMBUS AFB   CLOUDY    44  28  54 SE5       30.24S
CORINTH        CLOUDY    43  21  42 S9        30.20S
GOLDN TRIANGLE CLOUDY    46  24  42 SE7       30.25S
STARKVILLE     CLOUDY    45  21  39 CALM      30.26R
TUPELO         CLOUDY    42  22  44 SE6       30.23S
$$

MSZ040-058-200200-
CENTRAL MISSISSIPPI

CITY           SKY/WX    TMP DP  RH WIND       PRES   REMARKS
JACKSON INTL   CLOUDY    46  25  43 SE3       30.22S
JACKSON HAWKNS CLOUDY    50  17  27 SE3       30.23F
MADISON        CLOUDY    43  27  52 CALM      30.22F
MERIDIAN KEY   CLOUDY    47  26  44 CALM      30.26S
MERIDIAN NAS   CLOUDY    47  23  38 SE5       30.26S
RAYMOND        CLOUDY    46  30  53 CALM      30.23S
VICKSBURG VKS  CLOUDY    45  27  49 CALM      30.25R
$$

MSZ059>079-200200-
SOUTH MISSISSIPPI

CITY           SKY/WX    TMP DP  RH WIND       PRES   REMARKS
COLUMBIA       CLOUDY    46  37  71 E3        30.28S
HATTIESBURG    CLOUDY    53  32  44 SE5       30.26R
LAUREL         CLOUDY    49  26  40 CALM      30.26R
MCCOMB         CLOUDY    48  28  46 CALM      30.23R
NATCHEZ        CLOUDY    44  26  49 CALM      30.23S
PINE BELT      CLOUDY    47  31  53 CALM      30.26R
$$

MSZ080>082-200200-
COASTAL MISSISSIPPI

CITY           SKY/WX    TMP DP  RH WIND       PRES   REMARKS
BAY ST LOUIS   CLEAR     37  32  81 CALM      30.32R
BILOXI         FAIR      46  28  50 CALM      30.26R
PASCAGOULA     MOCLDY    39  31  72 CALM      30.27S
GULFPORT       FAIR      43  32  65 CALM      30.27R
$$

LAZ007>009-015>016-023>026-200200-
NORTHEAST LOUISIANA

CITY           SKY/WX    TMP DP  RH WIND       PRES   REMARKS
BASTROP        CLOUDY    46  24  43 SE3       30.21F
TALLULAH/VBURG CLOUDY    45  29  53 CALM      30.24R
VIDALIA        CLOUDY    44  29  55 MISG      30.23S
$$




USA.gov is the U.S. government's official web portal to all federal, state and local government web resources and services.